Miscellaneous Local Product
Issued by NWS North Platte, NE

Home | Current Version | Previous Version | Text Only | Print | Product List | Glossary On
Versions: 1 2 3 4 5 6 7 8 9 10 11 12 13 14 15 16 17 18 19 20 21 22 23 24 25 26 27 28 29 30 31 32 33 34 35 36 37 38 39 40 41 42 43 44 45 46 47 48 49 50
000
AXUS43 KLBF 212310
MISLBF


WESTERN AND NORTH CENTRAL NEBRASKA HOURLY WEATHER ROUNDUP
NATIONAL WEATHER SERVICE NORTH PLATTE NE
500 PM CST SUN DEC 21 2014

***STATIONS NOT REPORTING VARIABLES SUCH AS SKY/WEATHER OR
PRESSURE ARE PROVIDED BY THE NEBRASKA DEPARTMENT OF
ROADS...RAWS...AND APRS NETWORKS...AND ARE NOT UNDER
NATIONAL WEATHER SERVICE QUALITY CONTROL***

...OBSERVATIONS IN AND NEAR THE EASTERN PANHANDLE OF NEBRASKA...

CITY           SKY/WX    TMP DP  RH WIND       PRES   REMARKS
PINE RIDGE     MOCLDY    43  29  57 NW9       29.41R
CHADRON        CLOUDY    43  31  62 W13       29.44R
ALLIANCE       CLOUDY    38  32  79 W10       29.45R WCI  31
SIDNEY         CLOUDY    43  32  65 NW10      29.50S
WHITECLAY        N/A     41  27  57 W7          N/A
CRESCENT LAKE    N/A     43  32  65 SW7G16      N/A
LISCO            N/A     43  29  58 W6          N/A
BIG SPRINGS      N/A     38  31  77 W5          N/A  WCI  34
$$

...OBSERVATIONS IN NORTH CENTRAL NEBRASKA...

CITY           SKY/WX    TMP DP  RH WIND       PRES   REMARKS
VALENTINE      CLOUDY    39  31  72 SW10      29.41F WCI  32
THEDFORD       DRIZZLE   40  32  72 S15       29.47S WCI  32
AINSWORTH      CLOUDY    38  31  77 S15       29.43F WCI  29
O`NEILL        CLOUDY    36  35  97 S14       29.54S FOG     WCI  27
BROKEN BOW     CLOUDY    37  34  89 S8        29.54F WCI  31
BROWNLEE         N/A     43  32  65 S13         N/A
SPRINGVIEW       N/A     40  32  74 S5G13       N/A
BREWSTER         N/A     39  34  82 S9          N/A  WCI  33
ROSE             N/A     37  37  99 E13         N/A  WCI  28
SARGENT          N/A     36  34  92 CALM        N/A
COMSTOCK         N/A     40  39  98 S12         N/A  WCI  32
CHAMBERS         N/A     35  34  97 S13         N/A  WCI  26
EWING            N/A     37  36  97 CALM        N/A
$$

...OBSERVATIONS IN SOUTHWEST NEBRASKA AND FAR NORTHEAST COLORADO...

CITY           SKY/WX    TMP DP  RH WIND       PRES   REMARKS
WRAY           FAIR      43  32  65 W10       29.52S
HOLYOKE        FAIR      37  32  81 W7        29.51S WCI  32
IMPERIAL       CLOUDY    44  31  60 S8        29.50F
OGALLALA       CLOUDY    35  31  87 SW3       29.50S
NORTH PLATTE   CLOUDY    39  32  76 SE6       29.50F WCI  35
MCCOOK         CLOUDY    38  32  79 S9        29.54F WCI  31
LEXINGTON      CLOUDY    38  36  91 S10       29.55F FOG     WCI  32
PAXTON           N/A     37  33  85 CALM        N/A
BRADY            N/A     36  32  86 CALM        N/A
GOTHENBURG       N/A     36  33  88 S9          N/A  WCI  29
CALLAWAY         N/A     35  33  94 S17         N/A  WCI  25
$$

...NORTH PLATTE AREA...

CITY           SKY/WX    TMP DP  RH WIND       PRES   REMARKS
AIRPORT        CLOUDY    39  32  76 SE6       29.50F WCI  35
DOWNTOWN         N/A     40  33  76 MISG        N/A
$$

...SOME WEATHER OBSERVATIONS FROM AROUND THE REGION...

CITY           SKY/WX    TMP DP  RH WIND       PRES   REMARKS
DENVER         CLOUDY    49  24  37 W13       29.54S
LARAMIE        CLOUDY    34  30  85 W14       29.56R WCI  25
CHEYENNE       CLOUDY    43  28  55 NW26G41   29.53R
SCOTTSBLUFF    CLOUDY    41  32  70 NW10G20   29.47R
RAPID CITY     CLOUDY    43  26  51 N9        29.40R
PIERRE         MOCLDY    33  28  81 E7        29.40F WCI  27
WINNER         FAIR      42  31  64 S20       29.40F
SIOUX FALLS    CLOUDY    37  35  92 S17G31    29.58S WCI  27
OMAHA          CLOUDY    41  38  89 S16       29.73F
GRAND ISLAND   CLOUDY    41  38  89 S15       29.63R
KANSAS CITY    CLOUDY    44  40  85 S12       29.82F
WICHITA        DRIZZLE   46  43  89 S15       29.73F FOG
HAYS           CLOUDY    45  34  65 S14       29.62S
LIBERAL        MOCLDY    48  36  61 S7        29.60F
GOODLAND       CLOUDY    41  34  76 S7        29.54S
$$



USA.gov is the U.S. government's official web portal to all federal, state and local government web resources and services.